[[{"header":{"parameterUnit":"m.s-1","parameterCategory":1,"la1":30.2991,"la2":30.254,"lo1":-89.0895,"lo2":-89.0444,"dy":0.0017,"dx":0.0017,"nx":28,"ny":28,"refTime":"2024-03-10T03:00:00:Z","depth":0,"parameterNumber":2,"parameterNumberName":"U-component_of_WINDS"},"data":[0,0,0,0,0,0,0,0,0,0,0,0,0,0,0,0,0,0,0,0,0,0,0,0,0,0,0,0,0,0,0,0,0,0,0,0,0,0,0,0,0,0,0,0,0,0,0,0,0,0,0,0,0,0,0,0,0,0,-4.3249,-4.3249,0,-4.3312,-4.3312,-4.3313,-4.3162,-4.3157,-4.3152,-4.3148,-4.3214,-4.322,-4.3227,0,0,0,0,0,0,0,0,0,0,0,0,0,-4.2998,-4.3003,-4.3248,-4.3249,-4.325,-4.3311,-4.3312,-4.3313,-4.3163,-4.3157,-4.3151,-4.3146,-4.3212,-4.322,-4.3227,0,0,0,0,0,0,0,0,0,0,0,0,0,-4.3089,-4.3005,-4.3248,-4.3182,-4.3177,-4.3311,-4.3312,-4.3313,-4.3164,-4.3157,-4.315,-4.3143,-4.321,-4.3219,-4.3228,-4.343,0,0,-4.3257,-4.3261,0,0,0,0,0,0,0,0,-4.3084,-4.3098,-4.3191,-4.3187,-4.3182,-4.3221,-4.3248,-4.3352,-4.3166,-4.3169,-4.3148,-4.314,-4.3223,-4.323,-4.3258,-4.3433,-4.3435,-4.3258,-4.3263,-4.3267,-4.327,0,0,0,0,0,0,0,-4.3078,-4.3095,-4.3273,-4.3193,-4.3187,-4.315,-4.3155,-4.3267,-4.3236,-4.3168,-4.3158,-4.3167,-4.3219,-4.325,-4.3259,-4.3436,-4.3257,-4.3266,-4.3271,-4.3275,-4.3777,-4.3785,0,0,0,0,0,0,-4.308,-4.309,-4.3271,-4.3275,-4.3114,-4.316,-4.3166,-4.3216,-4.3234,-4.323,-4.3173,-4.316,-4.3237,-4.3248,-4.326,-4.3496,-4.3267,-4.3276,-4.3281,-4.377,-4.3779,-4.3787,0,0,0,0,0,0,-4.3075,-4.3097,-4.3269,-4.318,-4.3199,-4.3172,-4.323,-4.3221,-4.3252,-4.3237,-4.3231,-4.3211,-4.3232,-4.3247,-4.3388,-4.3497,-4.328,-4.3289,-4.3761,-4.3773,-4.3783,-4.3971,0,0,0,0,0,0,-4.3068,-4.3097,-4.3173,-4.3183,-4.3204,-4.3396,-4.3237,-4.3227,-4.3268,-4.3251,-4.3271,-4.3267,-4.3227,-4.3375,-4.3397,-4.3506,-4.3296,-4.3751,-4.3766,-4.378,-4.3955,-4.3988,-4.4016,0,0,0,0,0,-4.306,-4.3224,-4.3178,-4.32,-4.3299,-4.3403,-4.3415,-4.3365,-4.3277,-4.3354,-4.3344,-4.3267,-4.3481,-4.3391,-4.3415,-4.3527,-4.3744,-4.3762,-4.3779,-4.3942,-4.3981,-4.4015,0,0,0,0,0,0,-4.3229,-4.3224,-4.3173,-4.3345,-4.3375,-4.3377,-4.3472,-4.3409,-4.3466,-4.3448,-4.3384,-4.339,-4.3543,-4.3549,-4.3448,-4.3722,-4.3597,-4.362,-4.3713,-4.3751,-4.378,-4.3776,-4.3304,0,0,0,0,0,-4.3286,-4.337,-4.3362,-4.3514,-4.3532,-4.35,-4.3543,-4.3502,-4.3531,-4.3544,-4.3544,-4.3576,-4.365,-4.37,-4.3768,-4.3955,-4.3956,-4.4044,-4.4074,-4.4099,-4.412,-4.4218,-4.4256,-4.3845,-4.3845,-4.3844,0,0,-4.3406,-4.3413,-4.3471,-4.3549,-4.3567,-4.3656,-4.3512,-4.3612,-4.3677,-4.3559,-4.3692,-4.3694,-4.3724,-4.3889,-4.3961,-4.3899,-4.4233,-4.4121,-4.4141,-4.4148,-4.424,-4.4279,-4.4313,-4.3857,-4.3854,-4.3852,0,0,-4.3668,-4.3683,-4.3811,-4.3832,-4.3862,-4.3839,-4.387,-4.3881,-4.3877,-4.4009,-4.3922,-4.3998,-4.4128,-4.4153,-4.4183,-4.4453,-4.4383,-4.4476,-4.4635,-4.4731,-4.4763,-4.4792,-4.4888,-4.4923,-4.4497,-4.4498,-4.4498,0,-4.3813,-4.3943,-4.3885,-4.3991,-4.4027,-4.3923,-4.4052,-4.4075,-4.4127,-4.4154,-4.4083,-4.4241,-4.4255,-4.4423,-4.4489,-4.4517,-4.455,-4.4474,-4.4763,-4.4791,-4.4817,-4.4908,-4.4944,-4.4509,-4.4507,-4.4506,-4.4505,0,-4.4119,-4.421,-4.431,-4.4361,-4.4408,-4.4526,-4.4485,-4.454,-4.4495,-4.4479,-4.4614,-4.4626,-4.4694,-4.4731,-4.4688,-4.4893,-4.4853,-4.4774,-4.4647,-4.4868,-4.4952,-4.4987,-4.4525,-4.4521,-4.4517,-4.4515,0,0,-4.4492,-4.4507,-4.4545,-4.4566,-4.459,-4.4659,-4.4771,-4.4836,-4.4884,-4.4922,-4.5014,-4.5125,-4.5051,-4.5085,-4.5044,-4.5129,-4.5341,-4.5038,-4.5038,-4.5094,-4.5567,-4.5626,-4.5667,-4.5294,-4.53,-4.5306,-4.5564,0,-4.4751,-4.4942,-4.4893,-4.5083,-4.5166,-4.5067,-4.5165,-4.519,-4.5178,-4.5247,-4.5233,-4.5313,-4.521,-4.5229,-4.5309,-4.5298,-4.5435,-4.5279,-4.5379,-4.5383,-4.5375,-4.5711,-4.5775,-4.6018,-4.5596,-4.5602,-4.5606,0,-4.5079,-4.5128,-4.5328,-4.5336,-4.5369,-4.5458,-4.5512,-4.5579,-4.5606,-4.5591,-4.5628,-4.5569,-4.5679,-4.5551,-4.5701,-4.5596,-4.5634,-4.5635,-4.5643,-4.5651,-4.5509,-4.5728,-4.6095,-4.6131,-4.5657,-4.5653,-4.5649,0,-4.533,-4.5447,-4.558,-4.5601,-4.5615,-4.568,-4.5688,-4.5707,-4.5749,-4.5797,-4.5823,-4.5884,-4.5917,-4.5965,-4.5924,-4.5835,-4.608,-4.5949,-4.6071,-4.6073,-4.6128,-4.6125,-4.6506,-4.6153,-4.6152,-4.6152,-4.6151,0,-4.5625,-4.5751,-4.5693,-4.5776,-4.5913,-4.5854,-4.5992,-4.5989,-4.6006,-4.6086,-4.6004,-4.6081,-4.6021,-4.6093,-4.6061,-4.619,-4.6206,-4.6197,-4.6187,-4.6204,-4.6206,-4.6228,-4.6211,-4.6161,-4.6159,-4.6157,-4.6156,0,-4.593,-4.5896,-4.6035,-4.6036,-4.6039,-4.6141,-4.6141,-4.6217,-4.6198,-4.63,-4.6321,-4.6292,-4.6372,-4.6335,-4.6419,-4.6397,-4.6563,-4.653,-4.6554,-4.6546,-4.6669,-4.6658,-4.7078,-4.713,-4.6744,-4.6748,-4.6751,0,-4.612,-4.6214,-4.6225,-4.6272,-4.6286,-4.6363,-4.6405,-4.635,-4.6397,-4.6433,-4.6505,-4.6577,-4.6632,-4.6764,-4.675,-4.6813,-4.6782,-4.6924,-4.6791,-4.6805,-4.6783,-4.6778,-4.6787,-4.6952,-4.6956,-4.696,-4.6963,0,-4.6461,-4.644,-4.6503,-4.656,-4.6612,-4.6655,-4.6691,-4.6734,-4.668,-4.6737,-4.6817,-4.686,-4.6944,-4.7017,-4.7071,-4.708,-4.7013,-4.7005,-4.7036,-4.7055,-4.7065,-4.7061,-4.6627,-4.6996,-4.6992,-4.699,-4.6988,-4.6987,-4.6714,-4.6792,-4.6812,-4.6884,-4.6905,-4.694,-4.7011,-4.7001,-4.7066,-4.713,-4.7094,-4.7187,-4.7209,-4.7276,-4.7293,-4.7365,-4.7308,-4.7354,-4.7366,-4.7378,-4.7394,-4.7053,-4.7375,-4.7374,-4.7373,-4.7372,-4.7371,0,-4.7051,-4.7058,-4.7125,-4.7177,-4.7234,-4.7165,-4.72,-4.7253,-4.7335,-4.7361,-4.7417,-4.7508,-4.7577,-4.7569,-4.7632,-4.7691,-4.7662,-4.771,-4.7705,-4.7708,-4.7442,-4.7408,-4.7732,-4.7732,-4.7732,-4.7732,-4.7732,-4.7732,-4.7232,-4.7361,-4.7342,-4.7479,-4.7485,-4.7575,-4.7601,-4.7633,-4.7653,-4.7758,-4.7815,-4.7809,-4.7821,-4.7884,-4.7944,-4.794,-4.7967,-4.8026,-4.8011,-4.7762,-4.7727,-4.7693,-4.766,-4.8033,-4.8033,-4.827,-4.8273,-4.8274]},{"header":{"parameterUnit":"m.s-1","parameterCategory":1,"la1":30.2991,"la2":30.254,"lo1":-89.0895,"lo2":-89.0444,"dy":0.0017,"dx":0.0017,"nx":28,"ny":28,"refTime":"2024-03-10T03:00:00:Z","depth":0,"parameterNumber":3,"parameterNumberName":"V-component_of_WINDS"},"data":[0,0,0,0,0,0,0,0,0,0,0,0,0,0,0,0,0,0,0,0,0,0,0,0,0,0,0,0,0,0,0,0,0,0,0,0,0,0,0,0,0,0,0,0,0,0,0,0,0,0,0,0,0,0,0,0,0,0,-3.2858,-3.2859,0,-3.295,-3.2951,-3.2952,-3.2925,-3.2923,-3.2921,-3.292,-3.3011,-3.3015,-3.3019,0,0,0,0,0,0,0,0,0,0,0,0,0,-3.2654,-3.2658,-3.2858,-3.2859,-3.286,-3.295,-3.2951,-3.2952,-3.2925,-3.2923,-3.2921,-3.2919,-3.3009,-3.3014,-3.3019,0,0,0,0,0,0,0,0,0,0,0,0,0,-3.2744,-3.2659,-3.2858,-3.2858,-3.2859,-3.295,-3.2951,-3.2953,-3.2926,-3.2923,-3.292,-3.2918,-3.3008,-3.3014,-3.302,-3.3116,0,0,-3.3039,-3.3042,0,0,0,0,0,0,0,0,-3.2739,-3.2751,-3.2856,-3.2858,-3.2859,-3.2923,-3.2913,-3.3007,-3.2927,-3.29,-3.2919,-3.2916,-3.2984,-3.2992,-3.3015,-3.312,-3.3124,-3.304,-3.3044,-3.3047,-3.3048,0,0,0,0,0,0,0,-3.2733,-3.2747,-3.2894,-3.2858,-3.286,-3.2851,-3.2861,-3.2931,-3.2957,-3.2902,-3.2901,-3.2912,-3.2984,-3.3009,-3.3017,-3.3126,-3.304,-3.3045,-3.3049,-3.3052,-3.3311,-3.3314,0,0,0,0,0,0,-3.2726,-3.2742,-3.2891,-3.2897,-3.2791,-3.2857,-3.2868,-3.2905,-3.2956,-3.2961,-3.2914,-3.291,-3.3,-3.301,-3.302,-3.3135,-3.3046,-3.3052,-3.3056,-3.3308,-3.3312,-3.3315,0,0,0,0,0,0,-3.2722,-3.274,-3.2888,-3.2819,-3.2837,-3.2864,-3.2906,-3.2909,-3.2934,-3.2965,-3.2969,-3.2936,-3.2998,-3.3012,-3.3092,-3.3137,-3.3055,-3.3061,-3.3304,-3.3309,-3.3313,-3.3365,0,0,0,0,0,0,-3.2716,-3.2738,-3.2776,-3.282,-3.2841,-3.2959,-3.2909,-3.2913,-3.2946,-3.2941,-3.2986,-3.2991,-3.2997,-3.3083,-3.3098,-3.3145,-3.3066,-3.33,-3.3306,-3.3312,-3.3359,-3.337,-3.338,0,0,0,0,0,-3.2709,-3.2787,-3.2778,-3.2796,-3.289,-3.2962,-3.2974,-3.298,-3.2949,-3.2987,-3.3006,-3.299,-3.313,-3.3091,-3.3109,-3.3157,-3.3298,-3.3305,-3.3312,-3.3354,-3.3368,-3.338,0,0,0,0,0,0,-3.2747,-3.2793,-3.2784,-3.2879,-3.2917,-3.2957,-3.3005,-3.2995,-3.3042,-3.3036,-3.304,-3.305,-3.3133,-3.3153,-3.3109,-3.3251,-3.3209,-3.322,-3.3235,-3.3249,-3.3259,-3.3253,-3.3071,0,0,0,0,0,-3.2766,-3.2823,-3.2859,-3.2939,-3.2959,-3.2979,-3.3011,-3.3012,-3.3051,-3.3067,-3.3092,-3.313,-3.3182,-3.3217,-3.3267,-3.3361,-3.337,-3.3403,-3.3414,-3.3422,-3.3432,-3.3481,-3.3496,-3.3338,-3.3338,-3.3338,0,0,-3.2807,-3.2839,-3.2874,-3.2948,-3.2977,-3.3034,-3.2993,-3.3055,-3.3096,-3.3076,-3.3154,-3.3173,-3.3215,-3.3303,-3.3343,-3.3323,-3.3477,-3.3431,-3.3438,-3.3442,-3.349,-3.3505,-3.3518,-3.3343,-3.3342,-3.3341,0,0,-3.291,-3.2941,-3.301,-3.304,-3.3086,-3.3098,-3.3115,-3.3157,-3.3169,-3.3247,-3.3233,-3.3281,-3.3372,-3.3402,-3.3429,-3.3541,-3.3527,-3.3557,-3.3613,-3.3661,-3.3673,-3.3684,-3.3723,-3.3737,-3.3566,-3.3566,-3.3567,0,-3.2955,-3.3041,-3.3046,-3.311,-3.3142,-3.3126,-3.3195,-3.3224,-3.3283,-3.3304,-3.3281,-3.3393,-3.342,-3.3514,-3.3541,-3.3564,-3.3581,-3.3552,-3.3671,-3.3682,-3.3693,-3.373,-3.3744,-3.357,-3.3569,-3.3569,-3.3569,0,-3.3093,-3.3153,-3.3203,-3.3261,-3.3298,-3.3364,-3.3378,-3.3414,-3.3412,-3.3426,-3.3504,-3.3536,-3.3592,-3.3614,-3.3612,-3.3707,-3.3692,-3.367,-3.3627,-3.3711,-3.3746,-3.376,-3.3575,-3.3573,-3.3572,-3.3572,0,0,-3.3224,-3.3283,-3.3301,-3.3326,-3.3374,-3.342,-3.3484,-3.3538,-3.3569,-3.361,-3.3662,-3.3738,-3.3718,-3.3748,-3.3749,-3.3792,-3.3877,-3.3764,-3.3765,-3.3783,-3.3981,-3.3997,-3.4013,-3.3867,-3.387,-3.3872,-3.3977,0,-3.333,-3.3444,-3.345,-3.3552,-3.3607,-3.3591,-3.3647,-3.3681,-3.3696,-3.3742,-3.3758,-3.3811,-3.378,-3.3799,-3.384,-3.3858,-3.3916,-3.385,-3.3915,-3.3917,-3.3904,-3.4032,-3.4049,-3.4146,-3.399,-3.3993,-3.3994,0,-3.347,-3.3515,-3.3623,-3.3662,-3.3685,-3.3735,-3.3784,-3.383,-3.3868,-3.3875,-3.3909,-3.3903,-3.3966,-3.3921,-3.4008,-3.3962,-3.3989,-3.4001,-3.4005,-3.4011,-3.3961,-3.404,-3.4178,-3.4192,-3.4016,-3.4014,-3.4013,0,-3.3553,-3.3641,-3.3716,-3.3739,-3.3786,-3.3821,-3.3842,-3.3877,-3.3909,-3.3952,-3.3972,-3.4021,-3.4048,-3.4086,-3.4092,-3.4059,-3.4178,-3.4134,-3.4185,-3.4185,-3.4211,-3.4209,-3.4354,-3.4229,-3.4228,-3.4228,-3.4228,0,-3.3671,-3.3737,-3.3754,-3.3801,-3.3874,-3.3879,-3.3951,-3.3969,-3.4,-3.4049,-3.4038,-3.4083,-3.409,-3.4137,-3.4142,-3.4212,-3.4224,-3.4231,-3.4231,-3.4231,-3.423,-3.4249,-3.4242,-3.4232,-3.4231,-3.423,-3.423,0,-3.3776,-3.379,-3.3872,-3.391,-3.392,-3.3973,-3.4004,-3.4048,-3.406,-3.4122,-3.4136,-3.4156,-3.421,-3.422,-3.4284,-3.4287,-3.437,-3.4364,-3.4358,-3.4357,-3.4406,-3.4401,-3.4567,-3.4589,-3.445,-3.4452,-3.4453,0,-3.385,-3.3901,-3.3944,-3.3976,-3.3999,-3.4051,-3.4083,-3.4089,-3.4123,-3.4169,-3.4206,-3.4259,-3.4302,-3.4388,-3.4407,-3.4455,-3.445,-3.4505,-3.4457,-3.4455,-3.4449,-3.4446,-3.445,-3.4514,-3.4515,-3.4516,-3.4517,0,-3.398,-3.3984,-3.4032,-3.4082,-3.412,-3.416,-3.4197,-3.4223,-3.4234,-3.4272,-3.4327,-3.436,-3.4425,-3.4477,-3.4524,-3.4544,-3.4532,-3.4532,-3.4546,-3.4547,-3.454,-3.4543,-3.4382,-3.4528,-3.4527,-3.4527,-3.4526,-3.4525,-3.4071,-3.4115,-3.4152,-3.4205,-3.4233,-3.4268,-3.431,-3.4328,-3.4374,-3.4428,-3.4428,-3.4488,-3.4522,-3.4585,-3.4608,-3.4653,-3.4636,-3.4656,-3.4661,-3.4666,-3.467,-3.4533,-3.4662,-3.4662,-3.4661,-3.4661,-3.4661,0,-3.42,-3.4222,-3.4271,-3.4323,-3.4364,-3.435,-3.4389,-3.4424,-3.4478,-3.4511,-3.4553,-3.4615,-3.4665,-3.4687,-3.4736,-3.4768,-3.4763,-3.478,-3.4778,-3.4782,-3.4684,-3.4667,-3.4783,-3.4783,-3.4783,-3.4783,-3.4783,-3.4783,-3.4271,-3.4344,-3.4352,-3.4438,-3.446,-3.4519,-3.4543,-3.4574,-3.46,-3.4671,-3.4712,-3.4726,-3.4755,-3.4805,-3.4849,-3.4854,-3.4872,-3.4891,-3.4894,-3.4802,-3.4789,-3.4777,-3.4761,-3.4895,-3.4896,-3.4988,-3.4989,-3.499]}]]